Sofoklis Venizelos — SWBZ — position and weather

sailwx.info

Track history (hours):
 
Tides and Currents Weather Stations Pressure Air Temp Water Temp Dewpoint Dewpoint Depression Visibility Wind Speed Wind Dir Waves Ship Positions

Sofoklis Venizelos

Last reported at 2014-Aug-31 01:23 UTC. Time now 2014-Aug-31 04:38 UTC.
Position N 36°16' W 000°32'.

Length 188 m; draft 6.6 m.

Type: Passenger vessel. MMSI: 239593000.

Date/timePositionNaut miles runAvg speedWind from/ knotsBaromVisibWave heightAir tempDewpointWater temp
2014-Aug-31 01:23N 36°16' W 000°32'34 5.7
2014-Aug-30 19:27N 35°43' W 000°39'90 6.4
2014-Aug-30 05:26N 37°12' W 000°25'2022.2
2014-Aug-30 04:33N 37°31' W 000°23'2422.0
2014-Aug-30 03:28N 37°55' W 000°21'10 1.6
2014-Aug-29 21:26N 38°04' W 000°23'1921.3
2014-Aug-29 20:33N 37°45' W 000°22'2121.3
2014-Aug-29 19:33N 37°24' W 000°24'2221.7
2014-Aug-29 18:34N 37°03' W 000°27'2222.1
2014-Aug-29 17:32N 36°40' W 000°30'2421.9
2014-Aug-29 16:27N 36°17' W 000°33'35 8.8
2014-Aug-29 12:33N 35°43' W 000°39'0 0.0
2014-Aug-29 08:04N 35°43' W 000°39'0 0.0
2014-Aug-29 07:32N 35°43' W 000°39'0 0.0
2014-Aug-29 06:18N 35°43' W 000°39'6 6.5
2014-Aug-29 05:26N 35°48' W 000°37'2118.3
2014-Aug-29 04:16N 36°08' W 000°27'1819.0
2014-Aug-29 03:20N 36°26' W 000°26'1919.2
2014-Aug-29 02:19N 36°45' W 000°23'1619.7
2014-Aug-29 01:31N 37°01' W 000°20'1920.2
2014-Aug-29 00:33N 37°20' W 000°18'2019.8
2014-Aug-28 23:32N 37°40' W 000°16'1919.7
2014-Aug-28 22:33N 37°59' W 000°21'22 1.8
2014-Aug-28 10:32N 38°19' W 000°30'12 3.5
2014-Aug-28 07:04N 38°08' W 000°25'1120.8
2014-Aug-28 06:32N 37°57' W 000°22'2020.7
2014-Aug-28 05:33N 37°37' W 000°23'4321.1
2014-Aug-28 03:31N 36°54' W 000°26'2121.9
2014-Aug-28 02:33N 36°33' W 000°29'2921.9
2014-Aug-28 01:12N 36°04' W 000°34'2119.4
2014-Aug-28 00:06N 35°43' W 000°38'1 0.9
2014-Aug-27 23:32N 35°43' W 000°39'0 0.0
2014-Aug-27 22:32N 35°43' W 000°39'0 0.0
2014-Aug-27 21:32N 35°43' W 000°39'0 0.0
2014-Aug-27 20:33N 35°43' W 000°39'0 0.0
2014-Aug-27 19:33N 35°43' W 000°39'9 8.8
2014-Aug-27 18:32N 35°51' W 000°35'2119.8
2014-Aug-27 17:29N 36°11' W 000°27'2721.1
2014-Aug-27 16:13N 36°37' W 000°24'1522.0
2014-Aug-27 15:32N 36°52' W 000°22'2221.8
2014-Aug-27 14:32N 37°14' W 000°19'2322.0
2014-Aug-27 13:30N 37°37' W 000°16'2121.9
2014-Aug-27 12:33N 37°57' W 000°21'2311.4
2014-Aug-27 10:30N 38°19' W 000°30'0 0.0
2014-Aug-27 09:23N 38°19' W 000°30'4 1.9
2014-Aug-27 07:24N 38°16' W 000°29'1921.0
2014-Aug-27 06:31N 37°58' W 000°22'2121.4
2014-Aug-27 05:33N 37°38' W 000°16'2521.9
2014-Aug-27 04:25N 37°13' W 000°23'1921.8
2014-Aug-27 03:32N 36°54' W 000°27'2222.5
2014-Aug-27 02:33N 36°32' W 000°31'2422.4
2014-Aug-27 01:28N 36°08' W 000°33'2122.4
2014-Aug-27 00:30N 35°47' W 000°37'5 2.1
2014-Aug-26 22:12N 35°43' W 000°39'0 0.0
2014-Aug-26 21:31N 35°43' W 000°39'0 0.0
2014-Aug-26 20:29N 35°43' W 000°39'0 0.0
2014-Aug-26 19:33N 35°43' W 000°39'1 1.4
2014-Aug-26 18:32N 35°43' W 000°37'1920.0
2014-Aug-26 17:33N 36°02' W 000°29'2121.1
2014-Aug-26 16:33N 36°23' W 000°26'2221.9
2014-Aug-26 15:33N 36°44' W 000°23'2222.2
2014-Aug-26 14:33N 37°06' W 000°20'2222.1
2014-Aug-26 13:33N 37°28' W 000°17'2221.9
2014-Aug-26 12:34N 37°50' W 000°18'31 6.0
2014-Aug-26 07:25N 38°19' W 000°30'0 0.0
2014-Aug-26 06:33N 38°19' W 000°30'4 3.8
2014-Aug-26 05:33N 38°16' W 000°28'1919.4
2014-Aug-26 04:33N 37°57' W 000°22'1919.3
2014-Aug-26 03:33N 37°38' W 000°23'1818.2
2014-Aug-26 02:33N 37°20' W 000°16'1818.5
2014-Aug-26 01:33N 37°02' W 000°21'2020.6
2014-Aug-26 00:33N 36°42' W 000°26'2020.2
2014-Aug-25 23:33N 36°22' W 000°31'2120.7
2014-Aug-25 22:33N 36°02' W 000°34'1919.0
2014-Aug-25 21:32N 35°43' W 000°38'1 0.7
2014-Aug-25 20:27N 35°43' W 000°39'0 0.0
2014-Aug-25 18:07N 35°43' W 000°39'0 0.0
2014-Aug-25 17:33N 35°43' W 000°39'0 0.0
2014-Aug-25 16:32N 35°43' W 000°39'0 0.0
2014-Aug-25 15:33N 35°43' W 000°39'0 0.0
2014-Aug-25 14:33N 35°43' W 000°39'0 0.0
2014-Aug-25 13:33N 35°43' W 000°39'0 0.0
2014-Aug-25 12:30N 35°43' W 000°39'0 0.0
2014-Aug-25 11:32N 35°43' W 000°39'0 0.0
2014-Aug-25 10:33N 35°43' W 000°39'0 0.0
2014-Aug-25 09:30N 35°43' W 000°39'0 0.0
2014-Aug-25 08:30N 35°43' W 000°39'0 0.0
2014-Aug-25 07:19N 35°43' W 000°39'6913.3
2014-Aug-25 02:08N 36°50' W 000°22'1919.2
2014-Aug-25 01:08N 37°09' W 000°20'1119.3
2014-Aug-25 00:33N 37°21' W 000°18'2419.9
2014-Aug-24 23:19N 37°45' W 000°14'3711.6
2014-Aug-24 20:08N 38°19' W 000°30'0 0.0
2014-Aug-24 19:27N 38°19' W 000°30'0 0.0
2014-Aug-24 17:18N 38°19' W 000°30'0 0.0
2014-Aug-24 16:33N 38°19' W 000°30'111 6.9
2014-Aug-24 00:33N 36°28' W 000°30'34 1.5
2014-Aug-23 01:30N 37°01' W 000°19'1919.6
2014-Aug-23 00:33N 37°19' W 000°17'1919.4
2014-Aug-22 23:33N 37°39' W 000°16'2119.9
2014-Aug-22 22:30N 37°59' W 000°21'2116.4
2014-Aug-22 21:12N 38°19' W 000°30'0 0.0
2014-Aug-22 14:33N 38°19' W 000°30'0 0.0
2014-Aug-22 13:18N 38°19' W 000°30'0 0.0
2014-Aug-22 12:33N 38°19' W 000°30'0 0.0
2014-Aug-22 11:33N 38°19' W 000°30'0 0.0
2014-Aug-22 10:29N 38°19' W 000°30'6 1.2
2014-Aug-22 05:32N 38°14' W 000°27'1919.0
2014-Aug-22 04:33N 37°56' W 000°21'1919.1
2014-Aug-22 03:33N 37°37' W 000°23'1919.1
2014-Aug-22 02:34N 37°18' W 000°24'2119.7
2014-Aug-22 01:30N 36°57' W 000°27'1919.8
2014-Aug-22 00:32N 36°38' W 000°29'2820.1
2014-Aug-21 23:08N 36°10' W 000°33'2814.5
2014-Aug-21 21:12N 35°43' W 000°39'0 0.0
2014-Aug-21 20:29N 35°43' W 000°39'0 0.0
2014-Aug-21 19:33N 35°43' W 000°39'0 0.0
2014-Aug-21 18:18N 35°43' W 000°39'0 0.0
2014-Aug-21 17:33N 35°43' W 000°39'0 0.0
2014-Aug-21 15:32N 35°43' W 000°39'11 1.0
2014-Aug-21 05:14N 35°53' W 000°36'3818.5
2014-Aug-21 03:10N 36°30' W 000°25'1219.0
2014-Aug-21 02:33N 36°42' W 000°23'2119.5
2014-Aug-21 01:27N 37°03' W 000°21'  
Track history (hours):
 
Tides and Currents Weather Stations Pressure Air Temp Water Temp Dewpoint Dewpoint Depression Visibility Wind Speed Wind Dir Waves Ship Positions

Sofoklis Venizelos

Last reported at 2014-Aug-31 01:23 UTC. Time now 2014-Aug-31 04:38 UTC.
Position N 36°16' W 000°32'.

Length 188 m; draft 6.6 m.

Type: Passenger vessel. MMSI: 239593000.

Date/timePositionNaut miles runAvg speedWind from/ knotsBaromVisibWave heightAir tempDewpointWater temp
2014-Aug-31 01:23N 36°16' W 000°32'34 5.7
2014-Aug-30 19:27N 35°43' W 000°39'90 6.4
2014-Aug-30 05:26N 37°12' W 000°25'2022.2
2014-Aug-30 04:33N 37°31' W 000°23'2422.0
2014-Aug-30 03:28N 37°55' W 000°21'10 1.6
2014-Aug-29 21:26N 38°04' W 000°23'1921.3
2014-Aug-29 20:33N 37°45' W 000°22'2121.3
2014-Aug-29 19:33N 37°24' W 000°24'2221.7
2014-Aug-29 18:34N 37°03' W 000°27'2222.1
2014-Aug-29 17:32N 36°40' W 000°30'2421.9
2014-Aug-29 16:27N 36°17' W 000°33'35 8.8
2014-Aug-29 12:33N 35°43' W 000°39'0 0.0
2014-Aug-29 08:04N 35°43' W 000°39'0 0.0
2014-Aug-29 07:32N 35°43' W 000°39'0 0.0
2014-Aug-29 06:18N 35°43' W 000°39'6 6.5
2014-Aug-29 05:26N 35°48' W 000°37'2118.3
2014-Aug-29 04:16N 36°08' W 000°27'1819.0
2014-Aug-29 03:20N 36°26' W 000°26'1919.2
2014-Aug-29 02:19N 36°45' W 000°23'1619.7
2014-Aug-29 01:31N 37°01' W 000°20'1920.2
2014-Aug-29 00:33N 37°20' W 000°18'2019.8
2014-Aug-28 23:32N 37°40' W 000°16'1919.7
2014-Aug-28 22:33N 37°59' W 000°21'22 1.8
2014-Aug-28 10:32N 38°19' W 000°30'12 3.5
2014-Aug-28 07:04N 38°08' W 000°25'1120.8
2014-Aug-28 06:32N 37°57' W 000°22'2020.7
2014-Aug-28 05:33N 37°37' W 000°23'4321.1
2014-Aug-28 03:31N 36°54' W 000°26'2121.9
2014-Aug-28 02:33N 36°33' W 000°29'2921.9
2014-Aug-28 01:12N 36°04' W 000°34'2119.4
2014-Aug-28 00:06N 35°43' W 000°38'1 0.9
2014-Aug-27 23:32N 35°43' W 000°39'0 0.0
2014-Aug-27 22:32N 35°43' W 000°39'0 0.0
2014-Aug-27 21:32N 35°43' W 000°39'0 0.0
2014-Aug-27 20:33N 35°43' W 000°39'0 0.0
2014-Aug-27 19:33N 35°43' W 000°39'9 8.8
2014-Aug-27 18:32N 35°51' W 000°35'2119.8
2014-Aug-27 17:29N 36°11' W 000°27'2721.1
2014-Aug-27 16:13N 36°37' W 000°24'1522.0
2014-Aug-27 15:32N 36°52' W 000°22'2221.8
2014-Aug-27 14:32N 37°14' W 000°19'2322.0
2014-Aug-27 13:30N 37°37' W 000°16'2121.9
2014-Aug-27 12:33N 37°57' W 000°21'2311.4
2014-Aug-27 10:30N 38°19' W 000°30'0 0.0
2014-Aug-27 09:23N 38°19' W 000°30'4 1.9
2014-Aug-27 07:24N 38°16' W 000°29'1921.0
2014-Aug-27 06:31N 37°58' W 000°22'2121.4
2014-Aug-27 05:33N 37°38' W 000°16'2521.9
2014-Aug-27 04:25N 37°13' W 000°23'1921.8
2014-Aug-27 03:32N 36°54' W 000°27'2222.5
2014-Aug-27 02:33N 36°32' W 000°31'2422.4
2014-Aug-27 01:28N 36°08' W 000°33'2122.4
2014-Aug-27 00:30N 35°47' W 000°37'5 2.1
2014-Aug-26 22:12N 35°43' W 000°39'0 0.0
2014-Aug-26 21:31N 35°43' W 000°39'0 0.0
2014-Aug-26 20:29N 35°43' W 000°39'0 0.0
2014-Aug-26 19:33N 35°43' W 000°39'1 1.4
2014-Aug-26 18:32N 35°43' W 000°37'1920.0
2014-Aug-26 17:33N 36°02' W 000°29'2121.1
2014-Aug-26 16:33N 36°23' W 000°26'2221.9
2014-Aug-26 15:33N 36°44' W 000°23'2222.2
2014-Aug-26 14:33N 37°06' W 000°20'2222.1
2014-Aug-26 13:33N 37°28' W 000°17'2221.9
2014-Aug-26 12:34N 37°50' W 000°18'31 6.0
2014-Aug-26 07:25N 38°19' W 000°30'0 0.0
2014-Aug-26 06:33N 38°19' W 000°30'4 3.8
2014-Aug-26 05:33N 38°16' W 000°28'1919.4
2014-Aug-26 04:33N 37°57' W 000°22'1919.3
2014-Aug-26 03:33N 37°38' W 000°23'1818.2
2014-Aug-26 02:33N 37°20' W 000°16'1818.5
2014-Aug-26 01:33N 37°02' W 000°21'2020.6
2014-Aug-26 00:33N 36°42' W 000°26'2020.2
2014-Aug-25 23:33N 36°22' W 000°31'2120.7
2014-Aug-25 22:33N 36°02' W 000°34'1919.0
2014-Aug-25 21:32N 35°43' W 000°38'1 0.7
2014-Aug-25 20:27N 35°43' W 000°39'0 0.0
2014-Aug-25 18:07N 35°43' W 000°39'0 0.0
2014-Aug-25 17:33N 35°43' W 000°39'0 0.0
2014-Aug-25 16:32N 35°43' W 000°39'0 0.0
2014-Aug-25 15:33N 35°43' W 000°39'0 0.0
2014-Aug-25 14:33N 35°43' W 000°39'0 0.0
2014-Aug-25 13:33N 35°43' W 000°39'0 0.0
2014-Aug-25 12:30N 35°43' W 000°39'0 0.0
2014-Aug-25 11:32N 35°43' W 000°39'0 0.0
2014-Aug-25 10:33N 35°43' W 000°39'0 0.0
2014-Aug-25 09:30N 35°43' W 000°39'0 0.0
2014-Aug-25 08:30N 35°43' W 000°39'0 0.0
2014-Aug-25 07:19N 35°43' W 000°39'6913.3
2014-Aug-25 02:08N 36°50' W 000°22'1919.2
2014-Aug-25 01:08N 37°09' W 000°20'1119.3
2014-Aug-25 00:33N 37°21' W 000°18'2419.9
2014-Aug-24 23:19N 37°45' W 000°14'3711.6
2014-Aug-24 20:08N 38°19' W 000°30'0 0.0
2014-Aug-24 19:27N 38°19' W 000°30'0 0.0
2014-Aug-24 17:18N 38°19' W 000°30'0 0.0
2014-Aug-24 16:33N 38°19' W 000°30'111 6.9
2014-Aug-24 00:33N 36°28' W 000°30'34 1.5
2014-Aug-23 01:30N 37°01' W 000°19'1919.6
2014-Aug-23 00:33N 37°19' W 000°17'1919.4
2014-Aug-22 23:33N 37°39' W 000°16'2119.9
2014-Aug-22 22:30N 37°59' W 000°21'2116.4
2014-Aug-22 21:12N 38°19' W 000°30'0 0.0
2014-Aug-22 14:33N 38°19' W 000°30'0 0.0
2014-Aug-22 13:18N 38°19' W 000°30'0 0.0
2014-Aug-22 12:33N 38°19' W 000°30'0 0.0
2014-Aug-22 11:33N 38°19' W 000°30'0 0.0
2014-Aug-22 10:29N 38°19' W 000°30'6 1.2
2014-Aug-22 05:32N 38°14' W 000°27'1919.0
2014-Aug-22 04:33N 37°56' W 000°21'1919.1
2014-Aug-22 03:33N 37°37' W 000°23'1919.1
2014-Aug-22 02:34N 37°18' W 000°24'2119.7
2014-Aug-22 01:30N 36°57' W 000°27'1919.8
2014-Aug-22 00:32N 36°38' W 000°29'2820.1
2014-Aug-21 23:08N 36°10' W 000°33'2814.5
2014-Aug-21 21:12N 35°43' W 000°39'0 0.0
2014-Aug-21 20:29N 35°43' W 000°39'0 0.0
2014-Aug-21 19:33N 35°43' W 000°39'0 0.0
2014-Aug-21 18:18N 35°43' W 000°39'0 0.0
2014-Aug-21 17:33N 35°43' W 000°39'0 0.0
2014-Aug-21 15:32N 35°43' W 000°39'11 1.0
2014-Aug-21 05:14N 35°53' W 000°36'3818.5
2014-Aug-21 03:10N 36°30' W 000°25'1219.0
2014-Aug-21 02:33N 36°42' W 000°23'2119.5
2014-Aug-21 01:27N 37°03' W 000°21'  

Dump ship's entire track history